Location: Budapest
(47.4979°N, 19.0402°E)
Time: 07:03:19
(UTC+02:00)

Envisat - Pass Details

Date: 30 May 2024
Orbit: 762 x 764 km, 98.3° (Epoch: 13 June)

Event Time Altitude Azimuth Distance (km) Brightness Sun altitude
Rises 02:28:40 0° 33° (NNE) 3,236 8.0 -16.6°
Reaches altitude 10° 02:32:52 10° 67° (ENE) 2,303 6.2 -16.3°
Maximum altitude 02:34:27 11° 86° (E) 2,207 5.8 -16.2°
Drops below altitude 10° 02:36:01 10° 104° (ESE) 2,297 5.6 -16.0°
Sets 02:40:10 0° 138° (SE) 3,215 6.0 -15.7°
